TimeEST,TemperatureF,Dew PointF,Humidity,Sea Level PressureIn,VisibilityMPH,Wind Direction,Wind SpeedMPH,Gust SpeedMPH,PrecipitationIn,Events,Conditions,WindDirDegrees,DateUTC
12:53 AM,54.0,48.0,80,30.02,10.0,South,3.5,-,N/A,,Clear,190,2012-11-04 04:53:00
1:53 AM,54.0,50.0,86,30.02,10.0,Calm,Calm,-,N/A,,Clear,0,2012-11-04 05:53:00
1:53 AM,54.0,50.0,86,30.01,8.0,Calm,Calm,-,N/A,,Clear,0,2012-11-04 06:53:00
2:53 AM,51.1,48.0,89,30.00,6.0,Calm,Calm,-,N/A,,Clear,0,2012-11-04 07:53:00
3:53 AM,52.0,50.0,93,29.99,5.0,Calm,Calm,-,N/A,,Clear,0,2012-11-04 08:53:00
4:53 AM,51.1,48.9,92,29.99,4.0,Calm,Calm,-,N/A,,Clear,0,2012-11-04 09:53:00
5:53 AM,50.0,48.9,96,29.99,4.0,Calm,Calm,-,N/A,,Clear,0,2012-11-04 10:53:00
6:02 AM,48.2,46.4,93,30.00,2.0,Calm,Calm,-,N/A,,Clear,0,2012-11-04 11:02:00
6:12 AM,51.8,48.2,88,29.99,4.0,Calm,Calm,-,N/A,,Clear,0,2012-11-04 11:12:00
6:53 AM,51.1,48.9,92,29.99,3.0,Calm,Calm,-,N/A,,Clear,0,2012-11-04 11:53:00
7:06 AM,51.8,48.2,88,29.99,2.5,Calm,Calm,-,N/A,,Clear,0,2012-11-04 12:06:00
7:15 AM,51.8,50.0,94,30.00,4.0,West,3.5,-,N/A,,Clear,260,2012-11-04 12:15:00
7:53 AM,55.0,53.1,93,30.00,4.0,SSW,3.5,-,N/A,,Clear,200,2012-11-04 12:53:00
8:53 AM,63.0,55.0,75,30.00,8.0,Calm,Calm,-,N/A,,Clear,0,2012-11-04 13:53:00
9:53 AM,72.0,55.0,55,29.99,10.0,WSW,8.1,-,N/A,,Clear,240,2012-11-04 14:53:00
10:53 AM,77.0,55.0,47,29.98,10.0,WNW,9.2,-,N/A,,Clear,290,2012-11-04 15:53:00
11:53 AM,80.1,55.0,42,29.95,10.0,West,11.5,-,N/A,,Clear,270,2012-11-04 16:53:00
12:53 PM,82.0,52.0,35,29.92,10.0,WSW,13.8,26.5,N/A,,Clear,250,2012-11-04 17:53:00
1:53 PM,82.9,48.9,31,29.90,10.0,West,20.7,28.8,N/A,,Clear,260,2012-11-04 18:53:00
2:53 PM,80.1,51.1,36,29.90,10.0,West,13.8,19.6,N/A,,Overcast,280,2012-11-04 19:53:00
3:53 PM,73.0,59.0,61,29.89,10.0,West,5.8,-,0.07,,Partly Cloudy,260,2012-11-04 20:53:00
4:53 PM,75.9,54.0,46,29.88,10.0,NNW,4.6,-,N/A,,Clear,340,2012-11-04 21:53:00
5:53 PM,66.9,57.9,73,29.89,10.0,Calm,Calm,-,N/A,,Clear,0,2012-11-04 22:53:00
6:53 PM,64.9,59.0,81,29.92,10.0,NNE,3.5,-,N/A,,Clear,20,2012-11-04 23:53:00
7:53 PM,66.9,53.1,61,29.93,10.0,East,6.9,-,N/A,,Mostly Cloudy,90,2012-11-05 00:53:00
8:53 PM,64.9,53.1,65,29.94,10.0,Calm,Calm,-,N/A,,Partly Cloudy,0,2012-11-05 01:53:00
9:53 PM,63.0,53.1,70,29.95,9.0,ENE,4.6,-,0.00,Rain,Light Rain,60,2012-11-05 02:53:00
10:53 PM,59.0,53.1,81,29.95,10.0,NNE,6.9,-,0.00,,Mostly Cloudy,30,2012-11-05 03:53:00